Hourly Data Report for October 07, 2017

All times are specified in Local Standard Time (LST). Add 1 hour to adjust for Daylight Saving Time where and when it is observed.

PANGNIRTUNG
NUNAVUT

66°08'36.300" N
65°42'40.500" W
22.60 m
2403049
71826
WXP

Download Data

Hourly Data (October 2017)
Hourly Data Report for October 7, 2017
Temp Definition
°C
Dew Point Temp Definition
°C
Rel Hum Definition
%
Wind Dir Definition
10's deg

Wind Spd Definition
km/h
Visibility Definition
km
Stn Press Definition
kPa
Hmdx Definition


Wind Chill Definition


Weather Definition


TIME
00:00 2.0 -3.2 69 17 17   98.38     LegendNANA
01:00 0.3 -2.3 83 1 4   98.38     LegendNANA
02:00 0.2 -1.9 86 29 5   98.41     LegendNANA
03:00 0.2 -1.6 88 25 10   98.46     LegendNANA
04:00 -0.5 -0.7 99 25 11   98.50   -4 LegendNANA
05:00 -0.3 -0.5 99 9 9   98.57   -3 LegendNANA
06:00 1.2 -0.5 88 16 20   98.63     LegendNANA
07:00 0.7 -0.5 91 11 9   98.70     LegendNANA
08:00 0.8 -0.5 91 12 6   98.80     LegendNANA
09:00 0.2 -0.4 96 25 6   98.88     LegendNANA
10:00 0.5 0.0 97 24 5   98.97     LegendNANA
11:00 0.7 -0.1 95 23 3   99.03     LegendNANA
12:00 0.7 -0.5 92 24 8   99.09     LegendNANA
13:00 0.4 -0.9 91 14 5   99.15     LegendNANA
14:00 0.3 -0.7 93 25 3   99.25     LegendNANA
15:00 -0.4 -2.0 89 0 1   99.33   -1 LegendNANA
16:00 -0.4 -1.8 90 22 2   99.38   -1 LegendNANA
17:00 -0.6 -1.0 97   0   99.45     LegendNANA
18:00 -0.4 -0.5 99 24 3   99.53   -1 LegendNANA
19:00 -0.9 -0.9 100   0   99.58     LegendNANA
20:00 -0.9 -1.2 98 25 2   99.64   -2 LegendNANA
21:00 -0.8 -0.9 100 25 4   99.70   -2 LegendNANA
22:00 -0.8 -1.0 98 25 2   99.73   -1 LegendNANA
23:00 -1.5 -2.0 96   0   99.78     LegendNANA

Notes on Data Quality.

Legend

  • E = Estimated
  • M = Missing
  • NA = Not Available
  • ‡ = Partner data that is not subject to review by the National Climate Archives
Date modified: